ONEWEB-0111 (47261 NORAD) Tracking and Keplerian Element Data
This shows tracking and keplerian element data for the satellite.
Feedback or suggestion? Click here.
Element | Value |
Catalog | 47261 |
Name | ONEWEB-0111 |
Epoch Orbit | 512 |
Epoch Day | 21.16668981 |
Epoch Year | 2021 |
RAAN | 27.9794 |
Inclination | 87.3219 |
Eccentricity | 0.000975 |
Argument of Perigee | 147.5849 |
Mean Anonmoly | 230.5081 |
Mean Motion | 14.82588644 |
Decay Rate | -0.01443037 |
L1 | 1 47261U 20100D 21021.16668981 -.01443037 00000-0 -19414+0 0 9996 |
L2 | 2 47261 87.3219 27.9794 0009750 147.5849 230.5081 14.82588644 5126 |
Live tracking and technical data element details for ONEWEB-0111 (NORAD 47261). ONEWEB-0111 can be tracked NOW for your location showing map with azimuth and elevation plus other details from your city location.
Track the satellite on the map from your city or location and see movement details for azimuth, elevation, latitude, longitude, range, height, and movement on the map or in text.
IsCatalogInMostPopularTable: catalog: 47261, numindb: 14
Update: records affected: 1
GetName: 47261 ONEWEB-0111
Hit Count: updated at: Fri, 22 Jan 2021 15:22:22 GMT